{"data":{"norad_id":65068,"epoch":"2026-09-20T00:00:02.999808Z","epoch_age_seconds":163391,"freshness":"FRESH","line1":"1 65068U 25165N   26263.00003472  .00027304  00000+0  84522-3 0  9998","line2":"2 65068  97.2859 334.1706 0001194  84.8074 323.8611 15.33437560  5801","mean_motion":15.3343756,"eccentricity":0.0001194,"inclination_deg":97.2859,"raan_deg":334.1706,"arg_perigee_deg":84.8074,"mean_anomaly_deg":323.8611,"bstar":0.00084522,"rev_number":580,"period_min":93.906660275101,"perigee_km":464.74817271724,"apogee_km":466.38244882905,"semimajor_km":6843.7023107731,"source":"CELESTRAK","updated_at":"2026-09-21T09:00:35.500354Z"}}